Back to catalog

SL-12 R/B(2)

AliveGEO
NORAD 15139·ROCKET BODY·🇷🇺 Russia

Launched Mar 16, 1984 from Baikonur Cosmodrome

Loading…

TLE

FreshSource: Space-Track

Epoch: Sep 14, 2026, 13:30 UTC

1 15139U 84028F   26257.56285558 -.00000109  00000-0  00000-0 0  9998
2 15139   6.8001 300.5091 0018353  53.7519  72.1544  1.01430404125361

Track SL-12 R/B(2) in real time with AllMySat

Download on the App Store